Flag for Germany Weather past 2 weeks in Rheinberg, North Rhine-Westphalia, Germany

Now
60 °F

Passing clouds.


Feels Like: 60 °F
Forecast: 52 / 62 °F
Wind: 1 mph from West

Location: Duesseldorf

Current Time: Sep 20, 2014 at 10:52:55 PM

Latest Report: Sep 20, 2014 at 10:00 PM


Visibility: 13 mi

Pressure: 29.97 "Hg

Humidity: 89%

Dew point: 56 °F

Location of RheinbergLocation

Historic Weather in Rheinberg — Graph

°F

Rheinberg temperature yesterday

Maximum temperature yesterday: 75 °F (at 4:00 PM)
Minimum temperature yesterday: 61 °F (at 4:00 AM)
Average temperature yesterday: 66 °F

Past Weeks' High & Low Weather Summary

 TemperatureHumidityPressure
High76 °F (Sep 17, 5:00 PM)95% (Sep 8, 2:00 AM)30.25 "Hg (Sep 8, 2:00 AM)
Low46 °F (Sep 12, 8:00 AM)48% (Sep 17, 6:00 PM)29.83 "Hg (Sep 18, 8:00 PM)
Average62 °F79%30.02 "Hg
* Reported Sep 5 9:00 PM — Sep 20 9:00 PM, Rheinberg, Weather by CustomWeather, © 2014

Note: Actual official high and low records may vary slightly from our data, if they occured in-between our weather recording intervals... More about our weather records

Advertising

Rheinberg weather history for previous 24 hours

 ConditionsComfort  
Time TempWeatherWind HumidityBarometerVisibility
9:00 PM
Sep 20
62 °FPassing clouds.1 mph83%29.96 "Hg14 mi
8:00 PM66 °FPassing clouds.3 mph70%29.94 "Hg16 mi
3:00 PM73 °FScattered clouds.1 mph71%29.93 "Hg7 mi
2:00 PM71 °FOvercast.3 mph77%29.94 "Hg7 mi
1:00 PM71 °FOvercast.3 mph72%29.95 "Hg6 mi
12:00 PM71 °FScattered clouds.2 mph72%29.95 "Hg6 mi
11:00 AM67 °FThunderstorms. Scattered clouds.2 mph79%29.96 "Hg6 mi
10:00 AM65 °FThunderstorms. Partly sunny.2 mph91%29.95 "Hg6 mi
9:00 AM63 °FPartly sunny.2 mph93%29.94 "Hg9 mi
8:00 AM62 °FScattered clouds.3 mph94%29.93 "Hg7 mi
7:00 AM61 °FPassing clouds.2 mph95%29.93 "Hg7 mi
6:00 AM61 °FPassing clouds.3 mph95%29.92 "Hg9 mi
5:00 AM61 °FOvercast.2 mph95%29.92 "Hg12 mi
4:00 AM59 °FFog.1 mph95%29.91 "Hg9 mi
3:00 AM60 °FFog.1 mph94%29.92 "Hg9 mi
2:00 AM61 °FOvercast.2 mph95%29.92 "Hg11 mi
1:00 AM60 °FFog.1 mph93%29.92 "Hg12 mi
12:00 AM62 °FFog.1 mph92%29.92 "Hg19 mi
10:00 PM
Sep 19
65 °FPassing clouds.1 mph89%29.91 "Hg28 mi
Weather by CustomWeather, © 2014

See weather overviewHow to use our weather pages